This demonstration page uses our WeatherBlox Daily Observations layout. Learn more.

Left ArrowRight Arrow

34.16533, -84.80231

Hourly Observations for October 3, 2015

Temp ( °F °C ) Dew Point ( °F °C ) Humidity (%) Winds ( mph kmh ) Pressure ( in mb ) Visibility ( mi km ) Precip ( " mm )
3:40 am 03:40 Cloudy 60 15.6 60 15.6 100 100 VRB 6 9 29.74 1007 7 11 0.02 0.51
3:53 am 03:53 Cloudy with Light Rain 60 15.6 60 15.6 100 100 N 5 7 29.71 1006 4 6 0.02 0.51
4:07 am 04:07 Cloudy with Light Rain 60 15.6 60 15.6 100 100 N 5 7 29.74 1007 3 5 0.01 0.25
5:38 am 05:38 Cloudy with Strong Thunderstorms 59 15 59 15 100 100 N 5 7 29.74 1007 2 3 0.18 4.57
5:53 am 05:53 Cloudy with Strong Thunderstorms 59 15 59 15 100 100 NNW 3 6 29.69 1006 3 4 0.27 6.86
6:09 am 06:09 Cloudy with Strong Thunderstorms 59 15 59 15 100 100 N 3 6 29.71 1006 3 5 0.10 2.54
6:19 am 06:19 Cloudy with Nearby Thunderstorms 59 15 59 15 100 100 N 6 9 29.74 1007 4 6 0.15 3.81
6:27 am 06:27 Cloudy with Rain 58 14.4 58 14.4 100 100 N 5 7 29.71 1006 4 6 0.18 4.57
6:39 am 06:39 Cloudy with Rain 58 14.4 58 14.4 100 100 N 5 7 29.71 1006 4 6 0.22 5.59
6:49 am 06:49 Cloudy with Rain 57 14 57 14 100 100 VRB 3 6 29.71 1006 4 6 0.26 6.60
6:53 am 06:53 Cloudy with Rain 58 14.4 58 14.4 100 100 Calm 29.70 1006 4 6 0.27 6.86
7:31 am 07:31 Cloudy with Rain 58 14.4 58 14.4 100 100 Calm 29.74 1007 4 6 0.14 3.56
7:33 am 07:33 Cloudy with Thunderstorms 58 14.4 58 14.4 100 100 N 3 6 29.74 1007 4 6 0.15 3.81
7:53 am 07:53 Cloudy with Nearby Thunderstorms 58 14.4 58 14.4 100 100 N 6 9 29.70 1006 10 16 0.18 4.57
7:57 am 07:57 Cloudy with Light Rain 58 14.4 58 14.4 100 100 N 7 11 29.71 1006 10 16 0.00 0.03
8:53 am 08:53 Cloudy 58 14.4 58 14.4 100 100 Calm 29.70 1006 10 16 0.03 0.76
9:53 am 09:53 Cloudy 59 15 58 14.4 96 96 NNW 5 7 29.70 1006 10 16 0.00 0.00
10:53 am 10:53 Cloudy 60 15.6 58 14.4 93 93 NNW 5 7 29.70 1006 8 13 0.00 0.00
11:34 am 11:34 Cloudy with Light Rain 60 15.6 59 15 96 96 N 6 9 29.74 1007 2 3 0.02 0.51
11:50 am 11:50 Cloudy with Heavy Rain 59 15 57 14 94 94 VRB 5 7 29.74 1007 2 2 0.10 2.54
11:53 am 11:53 Cloudy with Rain 59 15 58 14.4 96 96 N 5 7 29.71 1006 2 3 0.10 2.54
11:55 am 11:55 Cloudy with Thunderstorms 59 15 59 15 100 100 NNW 5 7 29.74 1007 2 3 0.00 0.03
11:57 am 11:57 Cloudy with Thunderstorms 59 15 59 15 100 100 VRB 3 6 29.74 1007 3 5 0.00 0.03
12:09 pm 12:09 Cloudy with Light Rain 60 15.6 59 15 96 96 VRB 3 6 29.74 1007 3 5 0.00 0.03
12:22 pm 12:22 Cloudy with Mist and Fog 60 15.6 60 15.6 100 100 N 6 9 29.74 1007 5 8 0.01 0.25
12:33 pm 12:33 Cloudy with Mist and Fog 61 16.1 60 15.6 97 97 NNW 3 6 29.74 1007 5 8 0.01 0.25
12:43 pm 12:43 Cloudy with Light Rain 61 16.1 59 15 93 93 Calm 29.71 1006 3 5 0.01 0.25
12:50 pm 12:50 Cloudy with Light Rain 61 16 61 16 100 100 N 3 6 29.71 1006 3 4 0.02 0.51
12:53 pm 12:53 Cloudy with Light Rain 62 16.7 60 15.6 93 93 VRB 5 7 29.70 1006 4 6 0.02 0.51
1:53 pm 13:53 Cloudy 62 16.7 59 15 90 90 N 6 9 29.68 1005 10 16 0.00 0.03
2:18 pm 14:18 Cloudy 62 16.7 60 15.6 93 93 NNW 7 11 29.71 1006 10 16 0.00 0.00
2:26 pm 14:26 Cloudy 61 16.1 60 15.6 97 97 NNW 6 9 29.71 1006 7 11 0.00 0.00
2:53 pm 14:53 Cloudy with Mist and Fog 62 16.7 60 15.6 93 93 VRB 3 6 29.67 1005 3 5 0.00 0.03
3:04 pm 15:04 Cloudy with Mist and Fog 62 16.7 60 15.6 93 93 VRB 3 6 29.71 1006 4 6 0.00 0.00
3:42 pm 15:42 Cloudy 63 17.2 61 16.1 93 93 NNW 5 7 29.68 1005 10 16 0.00 0.00
3:53 pm 15:53 Cloudy 64 17.8 61 16.1 90 90 N 5 7 29.66 1004 9 14 0.00 0.00
4:03 pm 16:03 Cloudy with Mist and Fog 63 17.2 61 16.1 93 93 VRB 5 7 29.68 1005 4 6 0.00 0.00
4:10 pm 16:10 Cloudy 63 17.2 61 16.1 93 93 N 6 9 29.68 1005 7 11 0.00 0.00
4:53 pm 16:53 Cloudy 63 17.2 60 15.6 90 90 N 8 13 29.67 1005 9 14 0.00 0.00
5:02 pm 17:02 Cloudy 62 16.7 60 15.6 93 93 NNW 6 9 29.68 1005 8 13 0.00 0.00
5:51 pm 17:51 Cloudy with Light Rain 61 16 61 16 100 100 NNW 5 7 29.68 1005 3 4 0.01 0.25
5:53 pm 17:53 Cloudy with Light Rain 61 16.1 60 15.6 97 97 VRB 5 7 29.67 1005 3 4 0.01 0.25
6:01 pm 18:01 Cloudy with Mist and Fog 61 16.1 60 15.6 97 97 N 6 9 29.71 1006 5 8 0.00 0.03
6:46 pm 18:46 Cloudy with Light Rain 60 15.6 59 15 96 96 N 6 9 29.71 1006 2 3 0.01 0.25
6:53 pm 18:53 Cloudy with Light Rain 60 15.6 59 15 96 96 VRB 5 7 29.69 1005 2 3 0.01 0.25
7:00 pm 19:00 Cloudy with Light Rain 60 15.6 59 15 96 96 Calm 29.71 1006 2 3 0.01 0.25
7:07 pm 19:07 Cloudy with Light Rain 60 15.6 60 15.6 100 100 Calm 29.71 1006 3 4 0.01 0.25
7:15 pm 19:15 Cloudy with Mist and Fog 60 15.6 59 15 96 96 NNW 3 6 29.71 1006 3 5 0.01 0.25
7:22 pm 19:22 Cloudy with Light Rain 60 15.6 59 15 96 96 NNW 3 6 29.74 1007 2 3 0.02 0.51
7:32 pm 19:32 Cloudy with Light Rain 60 15.6 59 15 96 96 N 5 7 29.74 1007 3 5 0.02 0.51
7:42 pm 19:42 Cloudy with Light Rain 60 15.6 59 15 96 96 N 3 6 29.71 1006 3 4 0.04 1.02
7:45 pm 19:45 Cloudy with Light Rain 60 15.6 59 15 96 96 N 5 7 29.71 1006 3 5 0.04 1.02
7:53 pm 19:53 Cloudy with Light Rain 60 15.6 59 15 96 96 N 6 9 29.70 1006 4 6 0.04 1.02
8:53 pm 20:53 Cloudy with Light Rain 60 15.6 59 15 96 96 Calm 29.71 1006 10 16 0.01 0.25
9:53 pm 21:53 Cloudy 60 15.6 59 15 96 96 NW 5 7 29.70 1006 10 16 0.03 0.76
10:00 pm 22:00 Cloudy 60 15.6 59 15 96 96 VRB 3 6 29.71 1006 10 16 0.00 0.00
10:25 pm 22:25 Cloudy 60 15.6 59 15 96 96 N 5 7 29.74 1007 10 16 0.00 0.00
10:53 pm 22:53 Cloudy 60 15.6 59 15 96 96 Calm 29.70 1006 10 16 0.00 0.00
11:53 pm 23:53 Cloudy with Light Rain 60 15.6 60 15.6 100 100 Calm 29.72 1007 10 16 0.00 0.03

Powered by AerisWeather